"Pseudo-MPEC" for P213nxG

Created 2020 Aug 2 0:07:21 UT using Find_Orb

Click here for an explanation of pseudo-MPECs

 
 Astrometry: 
     P213nxG  C2020 07 29Y)':JY$0ii,JGqLVtD^Li7(.8$R4+0G47a9J?I9//p30g_f;^%AMF52
     P213nxG  C2020 07 29#5.'Av2QCh^98$=,gkC:W8x6Y%,\:nc\jOgg)VLwH*:TKt0%e-?wF52
     P213nxG  C2020 07 29Eq3$vt`kh#'Y,nF6JL3M0''[!8agyZdERQI(%dMngT'tI'dM.w$\F52
     P213nxG  C2020 07 30TYNoFMOdr[pvu`kCMFJ!I,?AstrometryP:+XtgfTo[TB1solik0F52
     P213nxG  C2020 07 30QVXfZ%rSUfp:ED[eRPG-sXh$IYig0E]B!JVv0redacted;5=ZPb$F52
     P213nxG  C2020 07 30e'WNi,DWeGjThTyLvTPSZLcIiwS+!?32[;PJN[guKAdYt6UNfbblF52
     P213nxG  C2020 07 31%16euX^bj?$ACo$mE)h/byqDeZ`W9qG6Ctt+mc_6i/:6.CX=+N#rF51
     P213nxG  C2020 07 31[7XlP*:F@7tov9b`Ry);m@I7R@v'6SSqD2dOpXujoJ_kc+o!51n/F51
     P213nxG  C2020 07 314_aU6Bkivchb'=X9lH..SYd_Oet:3)NMD)cgO,=lt%s772*_tGMZF51
     P213nxG  C2020 07 3112/clickP`#CQEh[./dnVC_O4v;r55s]SH)Si?KgJp/_XILx%I]TF51
     P213nxG  C2020 08 01^YIVn8here)+/6.8for,;[KfHP\W5:O_@Mdj0sNCB^l5BQDX_\eqF51
     P213nxG  C2020 08 01jft@QV[o].YMsRUpOmbd5:bnSx3.oWtixwuexplanation.mV#P6F51
     P213nxG  C2020 08 01W7if.rZJ6odx=vPLE.i`QdHytKO8aaP*M8-blWMjtE@%K@g%/'1MF51

Station data:
(F51) Pan-STARRS 1, Haleakala  (N20.707235 W156.255910)  US/Hawaii.
   Observers N. Primak, A. Schultz, S. Watters, J. Thiel, T. Goggia. Measurer
   PS1 Science Consortium. 1.8-m Ritchey-Chrétien + CCD.
(F52) Pan-STARRS 2, Haleakala  (N20.707384 W156.255910)  US/Hawaii. 1.8-m
   Ritchey-Chrétien + CCD.

Orbital elements:  P213nxG
   Perihelion 2020 Sep 2.954809 +/- 6.29 TT = 22:54:55 (JD 2459095.454809)
Epoch 2020 Aug  1.0 TT = JDT 2459062.5   Earth MOID: 0.6365   AutoNEOCP
M 352.99867498 +/- 2.5              (J2000 ecliptic)
n   0.21245229 +/- 0.0555           Peri.  292.03624 +/- 5.9
a   2.78160265 +/- 0.484            Node    62.30881 +/- 3.1
e   0.4206039 +/- 0.0883            Incl.    9.40076 +/- 0.27
P   4.64                   H 19.5   G  0.15   U 10.8  
q 1.61164970 +/- 0.0492    Q 3.95155561 +/- 1.31
From 13 observations 2020 July 29-Aug. 1; mean residual 0".10
Residuals in arcseconds: 
200729 F52  .02+  .03+    200730 F52  .01+  .32-    200801 F51  .03-  .05-    
200729 F52  .02+  .06+    200731 F51  .12+  .02+    200801 F51  .02+  .10+    
200729 F52  .02+  .07+    200731 F51  .03+  .03+    200801 F51  .06-  .02-    
200730 F52  .10+  .02-    200731 F51  .04+  .08+    
200730 F52  .30-  .05+    200731 F51  .06+  .01-    

Ephemerides (geocentric):
Date (UTC) HH   RA              Dec         delta   r     elong  mag " sig PA
---- -- -- --  -------------   -----------  ------ ------ -----  --- ---- ---
2020 08 02 00  01 00 34.302   -12 44 59.37  .87751 1.6358 119.5 21.6 .235  56
2020 08 02 01  01 00 38.036   -12 44 54.09  .87723 1.6357 119.5 21.6 .234  60
2020 08 02 02  01 00 41.768   -12 44 48.82  .87694 1.6357 119.5 21.6 .234  64
2020 08 02 03  01 00 45.497   -12 44 43.56  .87665 1.6356 119.5 21.6 .236  69
2020 08 02 04  01 00 49.223   -12 44 38.31  .87637 1.6355 119.5 21.6 .238  73
2020 08 02 05  01 00 52.946   -12 44 33.07  .87608 1.6355 119.6 21.6 .243  78
2020 08 02 06  01 00 56.667   -12 44 27.84  .87580 1.6354 119.6 21.6 .248  82
2020 08 02 07  01 01 00.385   -12 44 22.63  .87551 1.6354 119.6 21.6 .255  86
2020 08 02 08  01 01 04.100   -12 44 17.42  .87522 1.6353 119.6 21.6 .263  90
2020 08 02 09  01 01 07.812   -12 44 12.23  .87494 1.6352 119.7 21.6 .273  94
2020 08 02 10  01 01 11.522   -12 44 07.04  .87465 1.6352 119.7 21.6 .284  97
2020 08 02 11  01 01 15.229   -12 44 01.87  .87437 1.6351 119.7 21.6 .296 101
2020 08 02 12  01 01 18.933   -12 43 56.71  .87408 1.6351 119.7 21.6 .308 104
2020 08 02 13  01 01 22.634   -12 43 51.56  .87380 1.6350 119.7 21.6 .322 107
2020 08 02 14  01 01 26.333   -12 43 46.42  .87351 1.6349 119.8 21.6 .337 110
2020 08 02 15  01 01 30.028   -12 43 41.29  .87323 1.6349 119.8 21.6 .353 112
2020 08 02 16  01 01 33.722   -12 43 36.18  .87295 1.6348 119.8 21.6 .370 115
2020 08 02 17  01 01 37.412   -12 43 31.07  .87266 1.6347 119.8 21.6 .387 117
2020 08 02 18  01 01 41.099   -12 43 25.97  .87238 1.6347 119.9 21.6 .406 119
2020 08 02 19  01 01 44.784   -12 43 20.89  .87209 1.6346 119.9 21.6 .425 121
2020 08 02 20  01 01 48.466   -12 43 15.82  .87181 1.6346 119.9 21.6 .444 123
2020 08 02 21  01 01 52.145   -12 43 10.76  .87153 1.6345 119.9 21.6 .464 125
2020 08 02 22  01 01 55.821   -12 43 05.70  .87124 1.6344 120.0 21.6 .485 126
2020 08 02 23  01 01 59.495   -12 43 00.66  .87096 1.6344 120.0 21.6 .507 128
2020 08 03 00  01 02 03.166   -12 42 55.63  .87068 1.6343 120.0 21.6 .529 129
2020 08 03 01  01 02 06.834   -12 42 50.62  .87039 1.6343 120.0 21.6 .551 130
2020 08 03 02  01 02 10.499   -12 42 45.61  .87011 1.6342 120.0 21.6 .574 132
2020 08 03 03  01 02 14.161   -12 42 40.61  .86983 1.6341 120.1 21.6 .598 133
2020 08 03 04  01 02 17.821   -12 42 35.63  .86954 1.6341 120.1 21.6 .622 134
2020 08 03 05  01 02 21.478   -12 42 30.65  .86926 1.6340 120.1 21.6 .647 135
2020 08 03 06  01 02 25.131   -12 42 25.69  .86898 1.6340 120.1 21.6 .672 136
2020 08 03 07  01 02 28.783   -12 42 20.74  .86870 1.6339 120.2 21.6 .697 137
2020 08 03 08  01 02 32.431   -12 42 15.79  .86841 1.6338 120.2 21.6 .723 138
2020 08 03 09  01 02 36.076   -12 42 10.86  .86813 1.6338 120.2 21.6 .749 139
2020 08 03 10  01 02 39.719   -12 42 05.94  .86785 1.6337 120.2 21.6 .776 139
2020 08 03 11  01 02 43.359   -12 42 01.04  .86757 1.6337 120.2 21.6 .803 140
2020 08 03 12  01 02 46.996   -12 41 56.14  .86729 1.6336 120.3 21.6 .831 141
2020 08 03 13  01 02 50.630   -12 41 51.25  .86701 1.6335 120.3 21.6 .859 142
2020 08 03 14  01 02 54.261   -12 41 46.38  .86673 1.6335 120.3 21.6 .888 142
2020 08 03 15  01 02 57.890   -12 41 41.51  .86644 1.6334 120.3 21.6 .917 143
2020 08 03 16  01 03 01.515   -12 41 36.66  .86616 1.6334 120.4 21.6 .946 144
2020 08 03 17  01 03 05.138   -12 41 31.81  .86588 1.6333 120.4 21.6 .976 144
2020 08 03 18  01 03 08.758   -12 41 26.98  .86560 1.6333 120.4 21.6 1.01 145
2020 08 03 19  01 03 12.375   -12 41 22.16  .86532 1.6332 120.4 21.6 1.04 145
2020 08 03 20  01 03 15.989   -12 41 17.35  .86504 1.6331 120.4 21.6 1.07 146
2020 08 03 21  01 03 19.601   -12 41 12.55  .86476 1.6331 120.5 21.6 1.10 146
2020 08 03 22  01 03 23.209   -12 41 07.76  .86448 1.6330 120.5 21.6 1.13 147
2020 08 03 23  01 03 26.815   -12 41 02.98  .86420 1.6330 120.5 21.6 1.16 147